Location: Franzen
(48.6167°N, 15.3833°E)
Time: 20:44:12
(UTC+00:00)

ERS-1 Rocket - Visible Passes

Search period start: 23 July 2021 00:00
Search period end: 02 August 2021 00:00
Orbit: 752 x 758 km, 98.4° (Epoch: 23 July)

Date Brightness Start Highest point End Pass type
(mag) Time Alt. Az. Time Alt. Az. Time Alt. Az.
23 Jul 3.3 20:00:57 13° SE 20:05:17 53° ENE 20:10:11 10° N visible
23 Jul 4.8 21:40:57 12° SW 21:44:23 23° W 21:48:21 10° NW visible
24 Jul 4.3 19:21:47 10° ESE 19:25:54 26° ENE 19:30:04 10° N visible
24 Jul 3.6 21:00:53 18° S 21:04:27 49° W 21:09:21 10° NNW visible
25 Jul 3.0 20:20:49 17° SSE 20:24:45 78° ENE 20:29:48 10° NNW visible
25 Jul 5.2 22:01:09 10° SW 22:04:08 16° W 22:07:08 10° NW visible
26 Jul 3.8 19:40:46 10° SE 19:45:16 37° ENE 19:49:52 10° N visible
26 Jul 4.2 21:20:45 16° SSW 21:24:05 33° W 21:28:38 10° NNW visible
27 Jul 3.1 20:40:42 19° S 20:44:16 73° WSW 20:49:19 10° NNW visible
27 Jul 5.6 22:23:21 10° W 22:23:57 10° W 22:24:33 10° WNW visible
28 Jul 3.3 20:00:38 15° SE 20:04:41 53° ENE 20:09:34 10° N visible
28 Jul 4.8 21:40:38 14° SW 21:43:46 23° W 21:47:46 10° NW visible
29 Jul 4.3 19:21:12 10° ESE 19:25:18 26° ENE 19:29:26 10° N visible
29 Jul 3.6 21:00:35 20° SSW 21:03:51 49° W 21:08:44 10° NNW visible
30 Jul 3.0 20:20:31 19° SSE 20:24:08 77° ENE 20:29:11 10° NNW visible
30 Jul 5.2 22:00:32 10° SW 22:03:31 16° W 22:06:34 10° NW visible
31 Jul 3.8 19:40:28 12° SE 19:44:40 36° ENE 19:49:15 10° N visible
31 Jul 4.2 21:20:28 18° SSW 21:23:28 34° W 21:28:03 10° NNW visible
01 Aug 3.1 20:40:25 22° S 20:43:39 74° WSW 20:48:42 10° NNW visible
01 Aug 5.5 22:22:32 10° W 22:23:20 10° W 22:24:07 10° WNW visible
